Clinton, British Columbia

6:29 AM PDT on April 26, 2017 (GMT -0700)
Clinton

Weather History for CWCL - February, 2014

Change the Weather History Date:

Thursday, February 13, 2014

  Actual Average Record
Temperature  
Mean Temperature 34 °F -  
Max Temperature 43 °F 34 °F 44 °F (2015)
Min Temperature 25 °F 17 °F 0 °F (2000)
Degree Days  
Heating Degree Days 31    
Moisture  
Dew Point 16 °F    
Average Humidity 48    
Maximum Humidity 64    
Minimum Humidity 24    
Precipitation  
Precipitation 0.00 in - - ()
Sea Level Pressure  
Sea Level Pressure 29.68 in    
Wind  
Wind Speed 5 mph ()    
Max Wind Speed 12 mph    
Max Gust Speed 22 mph    
Visibility 9.0 miles    
Events      
Averages and records for this station are not official NWS values.
T = Trace of Precipitation, MM = Missing Value Source: Averaged Metar Reports

Daily Weather History Graph

Daily Weather History Graph

Search for Another Location

Airport or City:

Trip Planner

Search our weather history database for the weather conditions in past years. The results will help you decide how hot, cold, wet, or windy it might be!

Date:

Astronomy

Feb. 13, 2014 Rise Set
Actual Time 7:22 AM PST 5:18 PM PST
Civil Twilight 6:48 AM PST 5:53 PM PST
Nautical Twilight 6:09 AM PST 6:32 PM PST
Astronomical Twilight 5:30 AM PST 7:10 PM PST
Moon 4:32 PM PST (2/13) 6:19 AM PST (2/13)
Length of Visible Light 11h 05m
Length of Day
9h 56m
Waxing Gibbous, 99% of the Moon is Illuminated
Feb 13
Waxing Gibbous
Feb 14
Full
Feb 22
Last Quarter
Mar 1
New
Mar 8
First Quarter

Hourly Weather History & Observations

Time (PST) Temp. Windchill Dew Point Humidity Pressure Visibility Wind Dir Wind Speed Gust Speed Precip Events Conditions
12:00 AM 30.2 °F - 15.8 °F 55% 29.51 in 9.0 mi SSE 2.3 mph - N/A   Unknown
1:00 AM 27 °F - 15 °F 47% 29.50 in 9 mi South 2.3 mph - -  
1:00 AM 26.6 °F 20.0 °F 14.0 °F 59% 29.50 in 9.0 mi SSE 5.8 mph - N/A   Unknown
2:00 AM 28.4 °F - 15.8 °F 59% 29.49 in 9.0 mi Calm Calm - N/A   Unknown
3:00 AM 28.4 °F - 15.8 °F 59% 29.50 in 9.0 mi SW 2.3 mph - N/A   Unknown
4:00 AM 29 °F - 17 °F 49% 29.48 in 9 mi South 6.9 mph - -  
4:00 AM 28.4 °F 19.1 °F 17.6 °F 64% 29.48 in 9.0 mi South 10.4 mph - N/A   Unknown
5:00 AM 28.4 °F 22.2 °F 17.6 °F 64% 29.49 in 9.0 mi South 5.8 mph - N/A   Unknown
6:00 AM 30.2 °F 23.4 °F 17.6 °F 60% 29.50 in 9.0 mi South 6.9 mph - N/A   Unknown
7:00 AM 30 °F - 18 °F 49% 29.52 in 9 mi South 8.1 mph - -  
7:00 AM 30.2 °F 23.4 °F 17.6 °F 60% 29.52 in 9.0 mi South 6.9 mph - N/A   Unknown
8:00 AM 30.2 °F 23.4 °F 17.6 °F 60% 29.55 in 9.0 mi South 6.9 mph - N/A   Unknown
9:00 AM 32.0 °F 24.8 °F 19.4 °F 60% 29.57 in 9.0 mi SSE 8.1 mph - N/A   Unknown
10:00 AM 33 °F - 21 °F 48% 29.61 in 9 mi SW 4.6 mph - -  
10:00 AM 33.8 °F 28.6 °F 21.2 °F 60% 29.61 in 9.0 mi SW 5.8 mph - N/A   Unknown
12:00 PM 42.8 °F 37.5 °F 19.4 °F 39% 29.68 in 9.0 mi SW 9.2 mph - N/A   Unknown
1:00 PM 43 °F - 19 °F 24% 29.72 in 9 mi SSW 8.1 mph - -  
1:00 PM 42.8 °F 37.0 °F 19.4 °F 39% 29.72 in 9.0 mi SSW 10.4 mph 19.6 mph N/A   Unknown
2:00 PM 41.0 °F 34.7 °F 17.6 °F 39% 29.76 in 9.0 mi SSW 10.4 mph - N/A   Unknown
3:00 PM 41.0 °F 35.8 °F 15.8 °F 36% 29.80 in 9.0 mi SW 8.1 mph 21.9 mph N/A   Unknown
4:00 PM 39 °F - 15 °F 25% 29.84 in 9 mi SW 9.2 mph - -  
4:00 PM 39.2 °F 32.0 °F 15.8 °F 39% 29.84 in 9.0 mi SW 11.5 mph 17.3 mph N/A   Unknown
5:00 PM 35.6 °F 30.7 °F 14.0 °F 41% 29.87 in 9.0 mi SW 5.8 mph - N/A   Unknown
6:00 PM 33.8 °F 27.0 °F 14.0 °F 44% 29.89 in 9.0 mi SW 8.1 mph - N/A   Unknown
7:00 PM 30 °F - 13 °F 34% 29.91 in 9 mi SW 5.8 mph - -  
7:00 PM 30.2 °F 24.3 °F 12.2 °F 47% 29.91 in 9.0 mi SW 5.8 mph - N/A   Unknown
8:00 PM 28.4 °F 23.3 °F 10.4 °F 47% 29.90 in 9.0 mi SSW 4.6 mph - N/A   Unknown
9:00 PM 30.2 °F 21.9 °F 12.2 °F 47% 29.88 in 9.0 mi SSW 9.2 mph - N/A   Unknown
10:00 PM 30 °F - 13 °F 34% 29.86 in 9 mi South 9.2 mph - -  
10:00 PM 30.2 °F 20.8 °F 12.2 °F 47% 29.86 in 9.0 mi South 11.5 mph 17.3 mph N/A   Unknown
11:00 PM 28.4 °F 23.3 °F 12.2 °F 51% 29.81 in 9.0 mi South 4.6 mph - N/A   Unknown